Погода в Тайге

Россия / Приморский край     44°36′39″N   135°26′00″E
темп.,
°C
ветер,
м/с
пор.,
м/с
влажн.,
%
обл.,
%
осадки,
мм/ч
давл.,
гПа
погр.,
м
12 апреля, пн
пн1201:00+6з216513 0.0 102412
04:00+5з2164100 0.0 102413
07:00+5з1165100 0.0 102313
10:00+13ююз2443100 0.0 1021502
13:00+16юз4733100 0.0 10191874
16:00+15ююз5834100 0.0 10161918
19:00+10ю3539100 0.0 1017301
22:00+5ююв2368100 0.0 1017130
13 апреля, вт
вт1301:00+4юв1275100 0.0 1015131
04:00+3юв1287100 0.5 1011139
07:00+3юв1398100 4.3 1007159
10:00+4всв1299100 12.8 1002161
13:00+4сз2495100 2.9 999527
16:00+2сз6136499 2.9 1000975
19:00−2сз616601 0.0 10051155
22:00−3сз516510 0.0 10071621
14 апреля, ср
ср1401:00−4зсз515585 0.0 10091753
04:00−5зсз615534 0.0 10101376
07:00−5зсз412531 0.0 10121172
10:00−1зсз6103572 0.0 10121823
13:00+2зсз61128100 0.0 10102668
16:00+2зсз71232100 0.0 10112931
19:000зсз512485 0.0 10121746
22:00−3зюз216329 0.0 101421
15 апреля, чт
чт1501:00−3з116133 0.0 101510
04:00−3з21600 0.0 101519
07:00−2з22610 0.0 101667
10:00+5зсз37300 0.0 10161364
13:00+9зсз48293 0.0 10152096
16:00+11юз25285 0.0 10142203
19:00+5в1161100 0.0 101610
22:00+3юв1170100 0.0 101610
16 апреля, пт
пт1601:00+1ю117699 0.0 101611
04:00+2юв2690100 0.0 1015312
07:00+1юв2698100 0.0 1016242
10:00+4ююв3980100 0.0 1014974
13:00+2юв2698100 2.4 1014583
16:00+2юв1398100 2.8 1013280
19:00+3зюз119351 0.3 1015123
22:000зюз01955 0.3 101810